www.pogodaiklimat.ru

Погода и климат >> Архив погоды >> Россия >> Красноярский край >> Назимово


ПОГОДА в Назимово

  • Прогноз погоды в Назимово
  • Монитор погоды в Назимово

АРХИВ ПОГОДЫ в Назимово

Время (UTC), дата Ветер
(напр.,м/с)
 
Видим.   Явления Облачность Т
(С)
Тd
(С)
f
(%)
Тe
(С)
Тes
(С)
Комфортность P
(гПа)
Po
(гПа)
Тmin
(С)
Tmax
(С)
R
(мм)
R24
(мм)
S
(см)
06 17.07 СЗ 1 20 км 10/0 2000 м
[Ac und]
+21.8 +19.8 88 +27 +32 душно 1006.2 998.5
09 17.07 ЮВ 2 20 км 9/0 2000 м
[Ac lent]
+23.5 +20.1 81 +29 +31 душно 1005.9 998.2
12 17.07 ЮВ 1 10 км слаб. ливневой дождь 10/4 600 м
[Cb cap Ac lent]
+22.7 +20.7 88 +30 +30 очень
душно
1006.1 998.4 +24.3 0.0
15 17.07 штиль 0 20 км в посл. час ливневой дождь 9/4 600 м
[Cb cap Ac lent]
+20.4 +19.9 97 +24 +24 комфорт 1006.2 998.5
18 17.07 штиль 0 н/о {ливн. осадки} 3/0 2000 м
[Ac lent]
+17.4 +17.1 98 +17 +17 1005.8 998.0
21 17.07 З 1 н/о дымка 10/0 2000 м
[Ac und]
+15.6 +15.4 99 +16 +16 1005.8 998.0
00 18.07 штиль 0 2000 м дымка 8/0 2000 м
[Ac As]
+17.3 +17.1 99 +17 +19 1005.5 997.7 +15.2 0.0
03 18.07 штиль 0 10 км в посл. час ливневой дождь 10/3 600 м
[Cb cap Ac As]
+21.5 +19.9 91 +27 +29 душно 1005.3 997.6
06 18.07 ЮВ 2 10 км слаб. ливневой дождь 10/10 600 м
[Cb cap]
+20.0 +18.4 91 +24 +24 комфорт 1006.3 998.5
09 18.07 ЮВ 3 50 км {ливн. осадки} 8/8 600 м
[Cb cap]
+25.4 +19.9 72 +31 +33 очень
душно
1005.4 997.8
12 18.07 ЮВ 3 50 км {ливн. осадки} 10/0 2000 м
[Ac und]
+23.5 +15.6 61 +27 +27 душно 1006.1 998.4 +25.7 0.5
15 18.07 ЮВ 2 20 км 3/0
[Ac lent]
+19.6 +18.2 92 +23 +23 комфорт 1007.1 999.3
18 18.07 ЮЗ 1 н/о 9/0 2000 м
[Ac trans Ci fib]
+15.2 +15.0 99 +16 +16 1007.5 999.6
21 18.07 штиль 0 н/о 3/0 2000 м
[Ac trans]
+13.4 +13.2 99 +13 +13 1007.0 999.1
00 19.07 З 1 20 км 9/0 2000 м
[Ac lent Ci fib]
+16.4 +16.1 98 +17 +19 1007.4 999.6 +13.0
03 19.07 СВ 1 20 км 6/0 2000 м
[Ac lent Ci]
+24.0 +20.3 80 +30 +37 очень
душно
1007.1 999.5
06 19.07 В 5 20 км 10/10 600 м
[Cb cap]
+24.3 +17.4 65 +28 +28 душно 1007.4 999.8
09 19.07 В 5 20 км {ливн. осадки} 10/8 600 м
[Cb cap Ac As]
+23.4 +13.0 52 +26 +27 жарко 1008.9 1001.2
12 19.07 В 1 10 км дым {ливн. осадки} 9/0
[Ci fib]
+23.2 +16.9 68 +28 +30 душно 1009.6 1001.9 +26.3 0.0
15 19.07 ЮВ 1 4000 м дым 9/0
[Ci fib]
+18.8 +11.1 61 +21 +21 комфорт 1011.2 1003.4
18 19.07 В 2 н/о дым 9/0
[Ci fib]
+15.2 +6.6 56 +15 +15 1011.6 1003.7
21 19.07 н/о дым 9/0
[Ci fib]
+13.2 +5.6 60 1011.7 1003.8
00 20.07 2000 м дым 9/0
[Ci fib]
+14.6 +6.3 57 1012.2 1004.3 +13.2
03 20.07 СВ 1 2000 м дым ясно +18.0 +8.8 55 +19 +30 1012.6 1004.8
06 20.07 СВ 3 2000 м дым 9/0
[Cc]
+20.4 +12.0 59 +23 +32 комфорт 1011.8 1004.0
09 20.07 СВ 4
{10}
2000 м дым 9/0
[Cc]
+20.3 +5.3 37 +21 +26 комфорт 1012.2 1004.4
12 20.07 ЮВ 4 2000 м дым {ливн. осадки} 10/10 600 м
[Cb cap]
+14.2 +8.2 67 +13 +13 1013.8 1005.8 +22.2 0.0
15 20.07 СЗ 2 2000 м дым {ливн. осадки} 10/10 600 м
[Cb cap]
+12.3 +9.8 85 +11 +11 1012.2 1004.2
18 20.07 СЗ 2 н/о дым {ливн. осадки} 10/10 600 м
[Cb cap]
+12.7 +10.0 84 +12 +12 1010.3 1002.4
21 20.07 штиль 0 н/о дым 10/10 600 м
[Cb cap]
+13.7 +10.0 78 +13 +13 1008.6 1000.7
00 21.07 В 2 2000 м дым 10/10 600 м
[Cb cap]
+14.9 +9.3 69 +15 +15 1008.3 1000.4 +12.0 0.0
03 21.07 СВ 1 2000 м дым {ливн. осадки} 10/0 2000 м
[Ac und]
+14.7 +12.3 86 +15 +18 1008.6 1000.7
06 21.07 ЮВ 2 2000 м дым {ливн. осадки} 10/10 1000 м
[Sc]
+14.4 +11.2 81 +14 +14 1009.4 1001.5
09 21.07 В 1 10 км дым 9/0 2000 м
[Ac trans Ci fib]
+16.0 +11.8 76 +17 +22 1009.9 1002.1
12 21.07 В 2 10 км дым 8/8 600 м
[Cb calv]
+16.3 +11.5 73 +16 +17 1009.8 1002.0 +17.8 1
15 21.07 СЗ 1 10 км дым 3/0
[Ci fib]
+12.6 +11.7 94 +13 +13 1009.7 1001.8
18 21.07 штиль 0 н/о дым 9/0
[Ci fib]
+9.4 +9.2 99 +8 +8 1008.9 1000.8
21 21.07 штиль 0 н/о дым 10/0 2000 м
[Ci fib]
+10.5 +10.3 99 +10 +10 1007.7 999.7
00 22.07 штиль 0 2000 м дым 10/0 2000 м
[Ac und]
+10.8 +10.4 97 +10 +11 1007.4 999.4 +8.5
03 22.07 В 2 2000 м дым 10/0
[Ac und]
+14.8 +11.7 82 +14 +17 1006.8 998.9
06 22.07 ЮВ 1 4000 м дым 8/3 1000 м
[Cu med, cong Cc]
+18.8 +12.6 67 +21 +30 комфорт 1005.6 997.8
09 22.07 штиль 0 10 км дым 10/3 600 м
[Cb cap Ac As]
+19.8 +13.9 69 +21 +24 комфорт 1005.2 997.4
12 22.07 штиль 0 10 км дым 9/0 2000 м
[Ac trans Cc]
+19.4 +15.2 77 +21 +23 комфорт 1004.6 996.8 +20.5
15 22.07 штиль 0 н/о дым 10/0
[Ac lent]
+15.8 +14.8 94 +16 +16 1004.2 996.4
18 22.07 штиль 0 н/о в посл. час ливневой дождь {гроза} 10/10 600 м
[Cb cap]
+13.3 +13.1 99 +13 +13 1003.7 995.8
21 22.07 штиль 0 н/о {гроза, ливн. осадки} 10/0
[Ac und]
+12.7 +12.3 97 +12 +12 1003.3 995.4
00 23.07 штиль 0 10 км дым {гроза, ливн. осадки} 10/3 600 м
[Cb cap Ac As]
+12.7 +12.1 96 +12 +13 1003.4 995.5 +11.5 8
03 23.07 ЮВ 1 10 км 10/10 600 м
[Cb cap]
+15.0 +13.9 93 +15 +15 1003.3 995.4
06 23.07 Ю 2 10 км 10/10 600 м
[Cb cap]
+17.1 +14.3 84 +17 +17 1003.3 995.5
09 23.07 Ю 2 10 км 10/10 600 м
[Cb cap]
+19.0 +12.2 65 +21 +21 комфорт 1003.6 995.8
12 23.07 Ю 1 10 км 10/10 600 м
[Cb cap]
+18.6 +11.1 62 +20 +20 1003.9 996.1 +20.3
15 23.07 штиль 0 н/о дым 9/0
[Ci fib]
+13.7 +12.8 94 +13 +13 1003.7 995.8
18 23.07 ЮВ 1 н/о дымка 10/10 600 м
[Cb cap]
+10.8 +10.4 97 +10 +10 1004.5 996.5
21 23.07 ЮВ 2 н/о дымка 10/10 600 м
[Cb cap]
+11.5 +11.3 99 +10 +10 1004.2 996.2
00 24.07 ЮВ 2 2000 м дымка 10/10 600 м
[Cb cap]
+11.6 +11.6 100 +10 +10 1004.2 996.2 +10.2
03 24.07 ЮВ 3 2000 м дым 3/0
[Ac As]
+15.0 +12.5 85 +14 +20 1004.1 996.2

 

Местоположение метеостанции Назимово (Красноярский край, Россия): широта 59.50 долгота 91.02 высота над уровнем моря 67 м.

В архиве по умолчанию представлена погода в Назимово за последнюю неделю. Архивные данные за месяц целиком и за предыдущие месяцы, начиная с января 2011 года, Вы можете получить, выбрав интересующий диапазон дат из раскрывающегося списка и нажав кнопку "Ввод!".


*Определитесь, кто Вы:
робот инопланетянин человек

Внимание! Время в таблицах - всемирное. Для получения местного времени необходимо прибавить поправку, которая равна 7 ч.

Смотрите также архив погоды в соседних городах и на ближайших метеорологических станциях:

Погода в Ярцево (Красноярский край, Россия) (97 км)
Погода в Александровском Шлюзе (Красноярский край, Россия) (98 км)
Погода в Енисейске (Красноярский край, Россия) (134 км)
Погода в Северо-Енисейском (Красноярский край, Россия) (149 км)
Погода в Лосиноборске (Красноярский край, Россия) (152 км)
Погода в Сыме (Красноярский край, Россия) (175 км)
Погода в Ворогово (Красноярский край, Россия) (187 км)
Погода в Стрелке (Красноярский край, Россия) (195 км)
Погода в Усть-Озерном (Томская область, Россия) (199 км)
Погода в Вельмо (Красноярский край, Россия) (215 км)

Пояснения к столбцам:

Ветер - указаны скорость ветра в м/с - средняя за 10 мин, порывы в срок и между сроками (в фигурных скобках) и направление, откуда дует ветер: С - северный, СВ - северо-восточный, В - восточный, ЮВ - юго-восточный, Ю - южный, ЮЗ - юго-западный, З - западный, СЗ - северо-западный.
Видимость - горизонтальная дальность видимости в метрах или километрах. При видимости от 1 до 10 км при отсутствии осадков обычно наблюдается дымка, при ухудшении видимости до 1 км и менее - туман. В сухую погоду видимость может ухудшаться дымом, пылью или мглою.
Явления - указаны атмосферные явления, наблюдавшиеся в срок или в последний час перед сроком; фигурными скобками обозначены явления, наблюдавшиеся между сроками (за 1-3 часа до срока); квадратными скобками обозначены град или гололедные отложения с указанием их диаметра в мм.
Облачность - указаны через наклонную черту общая и нижняя облачность в баллах и высота нижней границы облаков в метрах; квадратными скобками обозначены формы облаков: Ci - перистые, Cs - перисто-слоистые, Cc - перисто-кучевые, Ac - высококучевые, As - высокослоистые, Sc - слоисто-кучевые, Ns - слоисто-дождевые, Cu - кучевые, Cb - кучево-дождевые. Подробнее классификацию облаков см. в Атласе облаков (PDF).
T - Температура воздуха - температура, измеренная на высоте 2 м над землей.
Td - Температура точки росы - температура, при понижении до которой содержащийся в воздухе водяной пар достигнет насыщения.
f - Относительная влажность воздуха - влажноcть воздуха, измеренная на высоте 2 м над землей.
Te - Эффективная температура - температура, которую ощущает одетый по сезону человек в тени. Характеристика душности погоды. При расчете учитывается влияние влажности воздуха и скорости ветра на теплоощущения человека.
Tes - Эффективная температура на солнце - температура, которую ощущает человек, с поправкой на солнечный нагрев. Характеристика знойности погоды. Зависит от высоты солнца над горизонтом, облачности и скорости ветра. Ночью, в пасмурную погоду, а также при ветре 12 м/с и более поправка равна нулю.
P - Атмосферное давление - приведенное к уровню моря атмосферное давление.
Po - Атмосферное давление - измеренное на уровне метеостанции атмосферное давление.
Tmin - Минимальная температура - минимум температуры воздуха на высоте 2 м над землей.
Tmax - Максимальная температура - максимум температуры воздуха на высоте 2 м над землей.
R - Количество осадков - Количество выпавших осадков за период времени, мм. При наведении курсора мыши на число - период времени, за который выпало указанное количество осадков.
R24 - Количество осадков - Количество выпавших осадков за 24 часа, мм.
S - Снежный покров - Высота снежного покрова, см. При наведении курсора мыши на число - состояние снежного покрова и степень покрытия местности в баллах.